When you browse on this site, cookies collect data to enhance your experience and personalize the content and advertising you see.
Visit our Privacy Policy to learn more. By continuing to use the site, you agree to this use of cookies and data.
  • In Schweiz
  • Länderverzeichnis
  • Für 7 Tage
  • Wassertemperatur
  • Wetterkarte
  • Widgets
  • user-avatar
    Anmelden

    Stündliche Wetter Luchanskiy

    Heute, 26 August, Montag

    Zeit Temperatur Niederschläge Wind Luftdruck Luftfeuchtigkeit
    00:00 +13°C° 0 mm 3 m/S 751 mmHg 87%
    01:00 +13°C° 0 mm 2 m/S 751 mmHg 88%
    02:00 +12°C° 0 mm 2 m/S 752 mmHg 89%
    03:00 +12°C° 0 mm 1 m/S 752 mmHg 89%
    04:00 +12°C° 0 mm 1 m/S 752 mmHg 90%
    05:00 +11°C° 0 mm 1 m/S 752 mmHg 91%
    06:00 +11°C° 0 mm 1 m/S 752 mmHg 91%
    07:00 +13°C° 0 mm 1 m/S 752 mmHg 85%
    08:00 +14°C° 0 mm 1 m/S 753 mmHg 78%
    09:00 +16°C° 0 mm 1 m/S 753 mmHg 72%
    10:00 +18°C° 0 mm 1 m/S 753 mmHg 67%
    11:00 +19°C° 0 mm 1 m/S 752 mmHg 62%
    12:00 +19°C° 0 mm 0 m/S 752 mmHg 57%
    13:00 +21°C° 0 mm 1 m/S 752 mmHg 55%
    14:00 +22°C° 0 mm 1 m/S 752 mmHg 52%
    15:00 +22°C° 0 mm 1 m/S 751 mmHg 50%
    16:00 +22°C° 0 mm 1 m/S 751 mmHg 53%
    17:00 +22°C° 0 mm 1 m/S 750 mmHg 56%
    18:00 +21°C° 0 mm 1 m/S 750 mmHg 59%
    19:00 +20°C° 0 mm 1 m/S 750 mmHg 63%
    20:00 +18°C° 0 mm 1 m/S 750 mmHg 68%
    21:00 +16°C° 0 mm 1 m/S 749 mmHg 72%
    22:00 +16°C° 0 mm 2 m/S 749 mmHg 73%
    23:00 +16°C° 0 mm 2 m/S 749 mmHg 74%

    Morgen, 27 August, Dienstag

    Zeit Temperatur Niederschläge Wind Luftdruck Luftfeuchtigkeit
    00:00 +15°C° 0 mm 2 m/S 748 mmHg 76%
    01:00 +14°C° 0 mm 3 m/S 748 mmHg 76%
    02:00 +14°C° 0 mm 3 m/S 747 mmHg 77%
    03:00 +14°C° 0 mm 3 m/S 747 mmHg 77%
    04:00 +14°C° 0 mm 4 m/S 747 mmHg 78%
    05:00 +14°C° 0 mm 4 m/S 746 mmHg 78%
    06:00 +14°C° 0 mm 4 m/S 746 mmHg 79%
    07:00 +16°C° 0 mm 5 m/S 746 mmHg 78%
    08:00 +17°C° 0 mm 5 m/S 745 mmHg 76%
    09:00 +19°C° 0 mm 5 m/S 745 mmHg 75%
    10:00 +20°C° 0.5 mm 5 m/S 745 mmHg 73%
    11:00 +20°C° 0.5 mm 5 m/S 745 mmHg 70%
    12:00 +21°C° 0.5 mm 5 m/S 744 mmHg 67%
    13:00 +22°C° 0.1 mm 6 m/S 744 mmHg 65%
    14:00 +22°C° 0.1 mm 6 m/S 744 mmHg 63%
    15:00 +22°C° 0.1 mm 6 m/S 744 mmHg 61%
    16:00 +22°C° 0 mm 5 m/S 744 mmHg 62%
    17:00 +21°C° 0 mm 4 m/S 744 mmHg 64%
    18:00 +20°C° 0 mm 4 m/S 744 mmHg 65%
    19:00 +19°C° 0 mm 4 m/S 745 mmHg 68%
    20:00 +18°C° 0 mm 4 m/S 745 mmHg 72%
    21:00 +15°C° 0 mm 4 m/S 745 mmHg 75%
    22:00 +14°C° 0 mm 3 m/S 745 mmHg 78%
    23:00 +13°C° 0 mm 3 m/S 746 mmHg 81%

    übermorgen, 28 August, Mittwoch

    Zeit Temperatur Niederschläge Wind Luftdruck Luftfeuchtigkeit
    00:00 +12°C° 0 mm 3 m/S 746 mmHg 84%
    01:00 +12°C° 0 mm 3 m/S 746 mmHg 85%
    02:00 +11°C° 0 mm 3 m/S 746 mmHg 86%
    03:00 +11°C° 0 mm 4 m/S 747 mmHg 86%
    04:00 +10°C° 0 mm 4 m/S 747 mmHg 87%
    05:00 +10°C° 0 mm 4 m/S 747 mmHg 87%
    06:00 +8°C° 0 mm 4 m/S 747 mmHg 87%
    07:00 +9°C° 0 mm 5 m/S 748 mmHg 79%
    08:00 +10°C° 0 mm 5 m/S 748 mmHg 71%
    09:00 +12°C° 0 mm 5 m/S 748 mmHg 63%
    10:00 +13°C° 0 mm 6 m/S 748 mmHg 60%
    11:00 +14°C° 0 mm 6 m/S 748 mmHg 56%
    12:00 +15°C° 0 mm 7 m/S 748 mmHg 53%
    13:00 +15°C° 0 mm 6 m/S 748 mmHg 51%
    14:00 +15°C° 0 mm 6 m/S 748 mmHg 49%
    15:00 +15°C° 0 mm 6 m/S 748 mmHg 48%
    16:00 +15°C° 0 mm 6 m/S 748 mmHg 51%
    17:00 +14°C° 0 mm 5 m/S 749 mmHg 54%
    18:00 +14°C° 0 mm 5 m/S 749 mmHg 57%
    19:00 +12°C° 0 mm 4 m/S 749 mmHg 61%
    20:00 +11°C° 0 mm 3 m/S 749 mmHg 66%
    21:00 +10°C° 0 mm 3 m/S 750 mmHg 71%
    22:00 +9°C° 0 mm 3 m/S 750 mmHg 73%
    23:00 +9°C° 0 mm 3 m/S 750 mmHg 76%

    29 August, Donnerstag

    Zeit Temperatur Niederschläge Wind Luftdruck Luftfeuchtigkeit
    00:00 +8°C° 0 mm 3 m/S 750 mmHg 78%
    01:00 +8°C° 0 mm 2 m/S 750 mmHg 80%
    02:00 +7°C° 0 mm 2 m/S 751 mmHg 82%
    03:00 +7°C° 0 mm 2 m/S 751 mmHg 84%
    04:00 +7°C° 0 mm 2 m/S 751 mmHg 86%
    05:00 +7°C° 0 mm 2 m/S 751 mmHg 87%
    06:00 +6°C° 0 mm 2 m/S 751 mmHg 88%
    07:00 +8°C° 0 mm 3 m/S 751 mmHg 81%
    08:00 +10°C° 0 mm 3 m/S 751 mmHg 73%
    09:00 +12°C° 0 mm 3 m/S 751 mmHg 66%
    10:00 +13°C° 0 mm 3 m/S 751 mmHg 60%
    11:00 +14°C° 0 mm 3 m/S 751 mmHg 54%
    12:00 +16°C° 0 mm 3 m/S 751 mmHg 48%
    13:00 +17°C° 0 mm 3 m/S 751 mmHg 49%
    14:00 +17°C° 0 mm 3 m/S 750 mmHg 49%
    15:00 +18°C° 0 mm 3 m/S 750 mmHg 50%
    16:00 +17°C° 0 mm 3 m/S 750 mmHg 55%
    17:00 +17°C° 0 mm 2 m/S 749 mmHg 60%
    18:00 +17°C° 0 mm 2 m/S 749 mmHg 65%
    19:00 +16°C° 0 mm 2 m/S 749 mmHg 69%
    20:00 +14°C° 0 mm 1 m/S 749 mmHg 74%
    21:00 +13°C° 0 mm 1 m/S 749 mmHg 78%
    22:00 +13°C° 0 mm 2 m/S 749 mmHg 80%
    23:00 +13°C° 0 mm 2 m/S 748 mmHg 82%

    30 August, Freitag

    Zeit Temperatur Niederschläge Wind Luftdruck Luftfeuchtigkeit
    00:00 +12°C° 0 mm 3 m/S 748 mmHg 84%
    01:00 +11°C° 0 mm 3 m/S 748 mmHg 84%
    02:00 +11°C° 0 mm 3 m/S 748 mmHg 85%
    03:00 +11°C° 0 mm 3 m/S 747 mmHg 86%
    04:00 +11°C° 0 mm 3 m/S 747 mmHg 87%
    05:00 +11°C° 0 mm 3 m/S 747 mmHg 87%
    06:00 +11°C° 0 mm 4 m/S 747 mmHg 88%
    07:00 +12°C° 0 mm 4 m/S 747 mmHg 82%
    08:00 +14°C° 0 mm 5 m/S 747 mmHg 75%
    09:00 +16°C° 0 mm 6 m/S 747 mmHg 69%
    10:00 +17°C° 0 mm 6 m/S 747 mmHg 66%
    11:00 +20°C° 0 mm 6 m/S 747 mmHg 62%
    12:00 +21°C° 0 mm 6 m/S 747 mmHg 59%
    13:00 +21°C° 0.1 mm 5 m/S 747 mmHg 61%
    14:00 +21°C° 0.1 mm 5 m/S 747 mmHg 63%
    15:00 +20°C° 0.1 mm 5 m/S 747 mmHg 66%
    16:00 +20°C° 0.2 mm 4 m/S 747 mmHg 69%
    17:00 +19°C° 0.2 mm 4 m/S 747 mmHg 72%
    18:00 +18°C° 0.2 mm 3 m/S 747 mmHg 75%
    19:00 +16°C° 0 mm 3 m/S 747 mmHg 78%
    20:00 +14°C° 0 mm 3 m/S 747 mmHg 81%
    21:00 +13°C° 0 mm 2 m/S 747 mmHg 83%
    22:00 +13°C° 0 mm 2 m/S 747 mmHg 81%
    23:00 +12°C° 0 mm 2 m/S 748 mmHg 79%

    31 August, Samstag

    Zeit Temperatur Niederschläge Wind Luftdruck Luftfeuchtigkeit
    00:00 +10°C° 0 mm 2 m/S 748 mmHg 77%
    01:00 +10°C° 0 mm 2 m/S 748 mmHg 77%
    02:00 +11°C° 0 mm 1 m/S 748 mmHg 78%
    03:00 +10°C° 0 mm 1 m/S 748 mmHg 78%
    04:00 +10°C° 0 mm 1 m/S 748 mmHg 79%
    05:00 +10°C° 0 mm 1 m/S 747 mmHg 80%
    06:00 +10°C° 0 mm 1 m/S 747 mmHg 81%
    07:00 +12°C° 0 mm 2 m/S 747 mmHg 79%
    08:00 +14°C° 0 mm 2 m/S 747 mmHg 76%
    09:00 +16°C° 0 mm 2 m/S 747 mmHg 74%
    10:00 +17°C° 0 mm 2 m/S 747 mmHg 70%
    11:00 +19°C° 0 mm 2 m/S 747 mmHg 67%
    12:00 +20°C° 0 mm 2 m/S 747 mmHg 64%
    13:00 +21°C° 0.1 mm 2 m/S 747 mmHg 60%
    14:00 +23°C° 0.1 mm 2 m/S 746 mmHg 57%
    15:00 +22°C° 0.1 mm 3 m/S 746 mmHg 53%
    16:00 +22°C° 0 mm 3 m/S 746 mmHg 57%
    17:00 +21°C° 0 mm 2 m/S 746 mmHg 61%
    18:00 +21°C° 0 mm 2 m/S 745 mmHg 64%
    19:00 +19°C° 0 mm 2 m/S 745 mmHg 69%
    20:00 +18°C° 0 mm 2 m/S 745 mmHg 74%
    21:00 +17°C° 0 mm 2 m/S 745 mmHg 78%
    22:00 +16°C° 0 mm 2 m/S 745 mmHg 79%
    23:00 +15°C° 0 mm 2 m/S 745 mmHg 79%
    Mehr zeigen